Погода в Чиребоне

Индонезия     6°44′38″S   108°33′23″E
темп.,
°C
ветер,
м/с
пор.,
м/с
влажн.,
%
обл.,
%
осадки,
мм/ч
давл.,
гПа
погр.,
м
4 августа, ср
ср401:00+24ю33825 0.0 101292
04:00+23ю33825 0.0 101274
07:00+25ююз237417 0.0 1013156
10:00+31юв33528 0.0 10131367
13:00+31всв555534 0.3 10101055
16:00+29в446139 0.4 1010901
19:00+25ююв238215 1.0 101293
22:00+24ююз228522 0.9 101446
5 августа, чт
чт501:00+23ююз118570 1.1 101336
04:00+23ююв11865 0.1 101242
07:00+25ююз118063 0.1 1013103
10:00+30в325813 0.2 10141117
13:00+31всв545528 1.1 10111225
16:00+29всв4462100 0.1 1010730
19:00+25юв228170 0.3 101273
22:00+24ю228087 0.0 101455
6 августа, пт
пт601:00+23ю228398 0.0 101241
04:00+23ююз228545 0.0 101244
07:00+25ю127685 0.0 1014127
10:00+31вюв4454100 0.0 10131227
13:00+31всв645370 0.2 10101155
16:00+29всв555870 0.2 1010768
19:00+25вюв227692 0.3 101289
22:00+24ююв237943 0.1 101367
7 августа, сб
сб701:00+24ю228437 0.1 101243
04:00+23ю238552 0.0 101158
07:00+25ю117560 0.0 1012123
10:00+30всв335588 0.0 10121160
13:00+31всв535426 0.3 10101234
16:00+29в446418 0.5 1010770
19:00+25ююв228166 1.8 101274
22:00+24ю228518 0.1 101359
8 августа, вс
вс801:00+24ююз118638 0.3 101238
04:00+23ююз12867 0.4 101138
07:00+25ююв237961 0.5 1013159
10:00+30в445860 0.3 10131134
13:00+31всв545312 1.1 10101183
16:00+29всв44593 0.3 1010831
19:00+25юв228066 0.6 1012102
22:00+24ю2383100 0.1 101367